Regional Weather Roundup
Issued by NWS

Home | Current Version | Previous Version | Graphics & Text | Print | Product List | Glossary On
Versions: 1 2 3 4 5 6 7 8 9 10 11 12 13 14 15 16 17 18 19 20 21 22 23 24 25 26 27 28 29 30 31 32 33 34 35 36 37 38 39 40 41 42 43 44 45 46 47 48 49 50
000
ASUS43 KDMX 181410
RWRIA

WEATHER ROUNDUP FOR IOWA
NATIONAL WEATHER SERVICE DES MOINES IA
  ISSUED BY NWS QUAD CITIES IA IL
900 AM CDT WED OCT 18 2017

NOTE: "FAIR" INDICATES FEW OR NO CLOUDS BELOW 12,000 FEET WITH NO
SIGNIFICANT WEATHER AND/OR OBSTRUCTIONS TO VISIBILITY.

* - THESE STATIONS ARE NOT NWS STATIONS...THUS NOT UNDER NWS
QUALITY CONTROL.  THEY ALSO DO NOT REPORT WEATHER SUCH
AS PRECIPITATION OR FOG.

IAZ001>003-012>014-020>022-031>034-043>046-181500-
   NORTHWEST IOWA

CITY           SKY/WX    TMP DP  RH WIND       PRES   REMARKS
CARROLL *      SUNNY     57  52  82 S20       29.90F
CHEROKEE *     SUNNY     52  48  87 S9        29.85R
DENNISON *     SUNNY     52  46  82 S12G18    29.92S
LE MARS *      SUNNY     54  46  76 S10G16    29.83R HAZE
ORANGE CITY *  SUNNY     52  48  87 S12       29.83R
SHELDON *      SUNNY     54  46  76 S12       29.81R
SIOUX CITY     SUNNY     48  47  96 E7        29.84F
SPENCER        SUNNY     51  46  83 S7        29.84S
STORM LAKE *   SUNNY     52  46  82 S15       29.86S
$$

IAZ055>058-069>071-079>083-090>094-181500-
   SOUTHWEST IOWA

CITY           SKY/WX    TMP DP  RH WIND       PRES   REMARKS
ATLANTIC *     SUNNY     52  46  82 S10       29.96S
AUDUBON *      SUNNY     54  46  76 S15G21    29.94F
CLARINDA *     SUNNY     54  48  82 S8        30.02R
COUNCIL BLFS * SUNNY     54  48  82 S13       29.94S
CRESTON *      SUNNY     54  46  76 S14G22    30.01S
HARLAN *       SUNNY     52  48  87 S14       29.97S
LAMONI         SUNNY     51  46  83 S12       30.04S
RED OAK *      SUNNY     54  48  82 S9        29.98R
SHENANDOAH *   SUNNY     52  46  82 S7        29.99R
$$

IAZ047>049-059>061-072>074-084-181500-
   CENTRAL IOWA

CITY           SKY/WX    TMP DP  RH WIND       PRES   REMARKS
AMES           SUNNY     54  49  83 S14       29.96S
ANKENY *       SUNNY     55  46  71 S9        29.99S
BOONE *        SUNNY     54  46  76 S13G20    29.94F
CHARITON *     SUNNY     54  46  76 S15       30.02S
DES MOINES     MOSUNNY   55  46  71 S13       29.99R
GRINNELL *     SUNNY     54  46  73 S12       30.03S
KNOXVILLE *    SUNNY     57  45  62 S14       30.01R
MARSHALLTOWN   SUNNY     55  47  74 S13       29.98S
NEWTON *       SUNNY     55  46  71 S14G21    30.01R
PELLA *        SUNNY     56  46  67 S9G18     30.03S
PERRY *        FAIR      54  49  83 S9        29.95F
$$

IAZ004>006-015-016-023>025-035-036-181500-
   NORTH CENTRAL IOWA

CITY           SKY/WX    TMP DP  RH WIND       PRES   REMARKS
ALGONA *       SUNNY     52  48  87 S16       29.87S
CLARION *      SUNNY     52  50  93 S16       29.91S
ESTHERVILLE    SUNNY     46  46 100 S13       29.84S
FORT DODGE *   SUNNY     54  46  74 S15       29.91F
MASON CITY     SUNNY     51  47  86 S13       29.92F
FOREST CITY *  FAIR      52  46  82 S10       29.89F
WEBSTER CITY * SUNNY     52  46  82 S12G20    29.91S
IOWA FALLS *   FAIR      54  47  78 S15       29.95F
$$

IAZ007>011-017>019-026>030-037>042-050>054-066-181500-
   NORTHEAST IOWA

CITY           SKY/WX    TMP DP  RH WIND       PRES   REMARKS
CEDAR RAPIDS   SUNNY     52  45  77 S10       30.03F
CHARLES CITY * SUNNY     52  46  82 S12G17    29.94F
CLINTON *      SUNNY     54  43  66 S13       30.10S
DECORAH *      SUNNY     54  46  76 S9G16     29.95S
DUBUQUE        SUNNY     51  44  77 S15       30.04S
MONTICELLO *   SUNNY     54  45  71 S9G16     30.04S
OELWEIN *      SUNNY     54  48  82 S13       29.99F
WATERLOO       SUNNY     53  45  74 S14       29.97S
$$

IAZ064-065-067-068-078-181500-
   EAST CENTRAL IOWA

CITY           SKY/WX    TMP DP  RH WIND       PRES   REMARKS
DAVENPORT      SUNNY     54  42  64 S12       30.11R
IOWA CITY      SUNNY     53  45  74 S6        30.07S
MT. PLEASANT * SUNNY     53  42  65 S13       30.10S
MUSCATINE *    SUNNY     54  43  66 S12       30.09S
QUAD CITIES    SUNNY     54  41  61 S10       30.09R
$$

IAZ062-063-075>077-085>089-095>099-181500-
   SOUTHEAST IOWA

CITY           SKY/WX    TMP DP  RH WIND       PRES   REMARKS
BURLINGTON     SUNNY     53  43  68 S10       30.12R
FAIRFIELD *    SUNNY     54  43  66 S12       30.07S
FORT MADISON * SUNNY     55  45  67 S9        30.12S
KEOKUK *       SUNNY     54  43  66 S13       30.12R
OSKALOOSA *    FAIR      53  47  79 S10       30.05S
CENTERVILLE *  FAIR      54  45  71 S8        30.08S
$$

ABBREVIATIONS USED IN REMARKS
   TC - TEMPERATURES IN CELSIUS
  WCI - WIND CHILL INDEX
   HX - HEAT INDEX
  VSB - VISIBILITY
$$




USA.gov is the U.S. government's official web portal to all federal, state and local government web resources and services.